Previsão horária em Al Mafraq

Hoje, 16 Janeiro, Sábado

Tempo Temperatura Precipitação Vento Pressão Humidade
00:00 +10°C° 0 mm 1 m/s 701 mmHg 83%
01:00 +10°C° 0 mm 1 m/s 700 mmHg 84%
02:00 +9°C° 0 mm 1 m/s 700 mmHg 89%
03:00 +9°C° 0 mm 1 m/s 700 mmHg 88%
04:00 +9°C° 0 mm 1 m/s 700 mmHg 87%
05:00 +9°C° 0 mm 1 m/s 700 mmHg 87%
06:00 +9°C° 0 mm 2 m/s 700 mmHg 84%
07:00 +9°C° 0 mm 2 m/s 700 mmHg 81%
08:00 +10°C° 0 mm 2 m/s 700 mmHg 79%
09:00 +12°C° 0 mm 2 m/s 700 mmHg 73%
10:00 +12°C° 0 mm 3 m/s 700 mmHg 67%
11:00 +13°C° 0 mm 3 m/s 700 mmHg 61%
12:00 +13°C° 0.1 mm 4 m/s 700 mmHg 58%
13:00 +13°C° 0.1 mm 5 m/s 699 mmHg 54%
14:00 +14°C° 0.1 mm 5 m/s 698 mmHg 51%
15:00 +13°C° 0 mm 5 m/s 699 mmHg 55%
16:00 +12°C° 0 mm 5 m/s 699 mmHg 59%
17:00 +11°C° 0 mm 4 m/s 699 mmHg 63%
18:00 +10°C° 0 mm 3 m/s 699 mmHg 66%
19:00 +10°C° 0 mm 3 m/s 699 mmHg 68%
20:00 +9°C° 0 mm 2 m/s 699 mmHg 71%
21:00 +9°C° 0 mm 2 m/s 699 mmHg 70%
22:00 +9°C° 0 mm 2 m/s 699 mmHg 69%
23:00 +8°C° 0 mm 2 m/s 699 mmHg 68%

Amanhã, 17 Janeiro, Domingo

Tempo Temperatura Precipitação Vento Pressão Humidade
00:00 +9°C° 0 mm 3 m/s 699 mmHg 66%
01:00 +9°C° 0 mm 3 m/s 699 mmHg 65%
02:00 +10°C° 0 mm 4 m/s 698 mmHg 63%
03:00 +8°C° 0 mm 4 m/s 698 mmHg 67%
04:00 +8°C° 0 mm 4 m/s 698 mmHg 71%
05:00 +8°C° 0 mm 4 m/s 698 mmHg 75%
06:00 +8°C° 0 mm 4 m/s 698 mmHg 73%
07:00 +8°C° 0 mm 5 m/s 698 mmHg 72%
08:00 +8°C° 0 mm 5 m/s 698 mmHg 70%
09:00 +9°C° 0 mm 6 m/s 699 mmHg 64%
10:00 +10°C° 0 mm 8 m/s 699 mmHg 59%
11:00 +11°C° 0 mm 9 m/s 699 mmHg 53%
12:00 +11°C° 0 mm 9 m/s 699 mmHg 52%
13:00 +12°C° 0 mm 10 m/s 698 mmHg 51%
14:00 +12°C° 0 mm 11 m/s 698 mmHg 51%
15:00 +11°C° 0 mm 10 m/s 698 mmHg 56%
16:00 +10°C° 0 mm 9 m/s 698 mmHg 61%
17:00 +8°C° 0 mm 9 m/s 698 mmHg 66%
18:00 +9°C° 0.3 mm 8 m/s 698 mmHg 67%
19:00 +9°C° 0.3 mm 8 m/s 699 mmHg 69%
20:00 +9°C° 0.3 mm 7 m/s 699 mmHg 71%
21:00 +7°C° 1.7 mm 8 m/s 699 mmHg 74%
22:00 +7°C° 1.7 mm 8 m/s 700 mmHg 78%
23:00 +7°C° 1.7 mm 9 m/s 700 mmHg 81%

Depois de amanhã, 18 Janeiro, Segunda-feira

Tempo Temperatura Precipitação Vento Pressão Humidade
00:00 +7°C° 0.2 mm 8 m/s 700 mmHg 83%
01:00 +6°C° 0.2 mm 8 m/s 700 mmHg 84%
02:00 +6°C° 0.2 mm 7 m/s 700 mmHg 86%
03:00 +6°C° 0.2 mm 7 m/s 700 mmHg 87%
04:00 +7°C° 0.2 mm 6 m/s 700 mmHg 88%
05:00 +7°C° 0.2 mm 6 m/s 701 mmHg 89%
06:00 +7°C° 0.2 mm 6 m/s 701 mmHg 87%
07:00 +7°C° 0.2 mm 6 m/s 702 mmHg 86%
08:00 +7°C° 0.2 mm 6 m/s 702 mmHg 84%
09:00 +7°C° 0.2 mm 5 m/s 702 mmHg 82%
10:00 +8°C° 0.2 mm 5 m/s 703 mmHg 79%
11:00 +8°C° 0.2 mm 5 m/s 703 mmHg 77%
12:00 +8°C° 0.1 mm 5 m/s 703 mmHg 76%
13:00 +8°C° 0.1 mm 5 m/s 702 mmHg 76%
14:00 +8°C° 0.1 mm 4 m/s 702 mmHg 75%
15:00 +8°C° 0.1 mm 5 m/s 702 mmHg 76%
16:00 +8°C° 0.1 mm 5 m/s 702 mmHg 77%
17:00 +8°C° 0.1 mm 5 m/s 703 mmHg 78%
18:00 +8°C° 0.1 mm 5 m/s 703 mmHg 79%
19:00 +7°C° 0.1 mm 4 m/s 703 mmHg 80%
20:00 +8°C° 0.1 mm 3 m/s 703 mmHg 81%
21:00 +8°C° 0 mm 3 m/s 703 mmHg 80%
22:00 +6°C° 0 mm 4 m/s 703 mmHg 78%
23:00 +6°C° 0 mm 4 m/s 703 mmHg 76%

19 Janeiro, Terça-feira

Tempo Temperatura Precipitação Vento Pressão Humidade
00:00 +6°C° 0 mm 4 m/s 702 mmHg 72%
01:00 +5°C° 0 mm 5 m/s 702 mmHg 67%
02:00 +5°C° 0 mm 5 m/s 702 mmHg 62%
03:00 +5°C° 0 mm 5 m/s 701 mmHg 62%
04:00 +5°C° 0 mm 5 m/s 701 mmHg 62%
05:00 +4°C° 0 mm 4 m/s 701 mmHg 63%
06:00 +5°C° 0 mm 5 m/s 701 mmHg 62%
07:00 +5°C° 0 mm 5 m/s 701 mmHg 62%
08:00 +4°C° 0 mm 6 m/s 700 mmHg 61%
09:00 +5°C° 0 mm 7 m/s 700 mmHg 59%
10:00 +7°C° 0 mm 8 m/s 700 mmHg 57%
11:00 +8°C° 0 mm 10 m/s 700 mmHg 55%
12:00 +8°C° 0.2 mm 10 m/s 700 mmHg 61%
13:00 +8°C° 0.2 mm 10 m/s 699 mmHg 67%
14:00 +7°C° 0.2 mm 10 m/s 699 mmHg 74%
15:00 +7°C° 1 mm 9 m/s 699 mmHg 78%
16:00 +7°C° 1 mm 8 m/s 699 mmHg 82%
17:00 +6°C° 1 mm 7 m/s 700 mmHg 87%
18:00 +6°C° 1 mm 7 m/s 700 mmHg 86%
19:00 +7°C° 1 mm 6 m/s 700 mmHg 85%
20:00 +7°C° 1 mm 6 m/s 701 mmHg 84%
21:00 +6°C° 0.2 mm 5 m/s 701 mmHg 85%
22:00 +6°C° 0.2 mm 5 m/s 701 mmHg 86%
23:00 +6°C° 0.2 mm 5 m/s 701 mmHg 87%

20 Janeiro, Quarta-feira

Tempo Temperatura Precipitação Vento Pressão Humidade
00:00 +6°C° 0.6 mm 5 m/s 701 mmHg 86%
01:00 +4°C° 0.6 mm 6 m/s 701 mmHg 85%
02:00 +4°C° 0.6 mm 7 m/s 701 mmHg 84%
03:00 +4°C° 0.2 mm 7 m/s 701 mmHg 83%
04:00 +4°C° 0.2 mm 6 m/s 701 mmHg 83%
05:00 +3°C° 0.2 mm 6 m/s 701 mmHg 83%
06:00 +3°C° 0 mm 6 m/s 701 mmHg 81%
07:00 +4°C° 0 mm 6 m/s 701 mmHg 80%
08:00 +4°C° 0 mm 7 m/s 702 mmHg 79%
09:00 +4°C° 0.2 mm 7 m/s 702 mmHg 76%
10:00 +5°C° 0.2 mm 8 m/s 702 mmHg 74%
11:00 +5°C° 0.2 mm 9 m/s 702 mmHg 71%
12:00 +5°C° 0.5 mm 9 m/s 702 mmHg 72%
13:00 +5°C° 0.5 mm 9 m/s 702 mmHg 72%
14:00 +5°C° 0.5 mm 9 m/s 703 mmHg 73%
15:00 +5°C° 0.1 mm 8 m/s 703 mmHg 75%
16:00 +5°C° 0.1 mm 7 m/s 703 mmHg 77%
17:00 +4°C° 0.1 mm 6 m/s 704 mmHg 78%
18:00 +4°C° 0 mm 6 m/s 704 mmHg 80%
19:00 +3°C° 0 mm 5 m/s 705 mmHg 81%
20:00 +3°C° 0 mm 5 m/s 706 mmHg 83%
21:00 +3°C° 0 mm 4 m/s 706 mmHg 82%
22:00 +3°C° 0 mm 4 m/s 706 mmHg 81%
23:00 +3°C° 0 mm 3 m/s 707 mmHg 80%

21 Janeiro, Quinta-feira

Tempo Temperatura Precipitação Vento Pressão Humidade
00:00 +3°C° 0 mm 3 m/s 707 mmHg 79%
01:00 +3°C° 0 mm 2 m/s 707 mmHg 78%
02:00 +3°C° 0 mm 2 m/s 707 mmHg 77%
03:00 +3°C° 0 mm 2 m/s 707 mmHg 77%
04:00 +3°C° 0 mm 2 m/s 707 mmHg 78%
05:00 +3°C° 0 mm 2 m/s 707 mmHg 78%
06:00 +4°C° 0 mm 1 m/s 708 mmHg 76%
07:00 +5°C° 0 mm 1 m/s 709 mmHg 74%
08:00 +4°C° 0 mm 0 m/s 709 mmHg 72%
09:00 +6°C° 0 mm 1 m/s 709 mmHg 66%
10:00 +7°C° 0 mm 1 m/s 710 mmHg 60%
11:00 +8°C° 0 mm 1 m/s 710 mmHg 54%
12:00 +9°C° 0 mm 1 m/s 710 mmHg 51%
13:00 +10°C° 0 mm 1 m/s 709 mmHg 48%
14:00 +10°C° 0 mm 1 m/s 709 mmHg 45%
15:00 +10°C° 0 mm 1 m/s 709 mmHg 50%
16:00 +9°C° 0 mm 1 m/s 709 mmHg 54%
17:00 +9°C° 0 mm 1 m/s 709 mmHg 58%
18:00 +8°C° 0 mm 1 m/s 709 mmHg 62%
19:00 +8°C° 0 mm 1 m/s 709 mmHg 65%
20:00 +6°C° 0 mm 0 m/s 709 mmHg 69%
21:00 +7°C° 0 mm 1 m/s 709 mmHg 68%
22:00 +7°C° 0 mm 1 m/s 709 mmHg 68%
23:00 +6°C° 0 mm 1 m/s 709 mmHg 67%
Mostrar mais

Necessitamos do seu Consentimento

A Meteoprog e os seus Fornecedores de Serviços podem armazenar e aceder a dados pessoais como cookies, identificadores do dispositivo ou outras tecnologias semelhantes existentes no seu dispositivo e processar estes dados para personalizar conteúdos e anúncios, assim como funcionalidades nas redes sociais e análise de tráfego.

  • Armazenar e/ou aceder a informações no seu dispositivo

    Os cookies, identificadores do dispositivo ou outras informações podem ser armazenados ou acedidos no seu dispositivo, para os fins acima indicados.

  • Anúncios e conteúdos personalizados, medição de anúncios e conteúdos, dados sobre o público-alvo e desenvolvimento de produtos

    Os anúncios e os conteúdos podem ser personalizados com base num perfil. Podem ser adicionados dados adicionais para uma maior personalização dos anúncios e dos conteúdos. A eficácia dos anúncios e dos conteúdos pode ser medida. Podem ser obtidas informações sobre o público que visualizou os anúncios e os conteúdos. Estes dados podem ser usados para desenvolver ou melhorar sistemas, softwares ou a experiência do utilizador.

Ao clicar em "Eu concordo”, permitirá o uso de cookies, identificadores do dispositivo e web beacons mencionados ou outras tecnologias semelhantes. As configurações do navegador do seu dispositivo podem ser alteradas.

Para certos fins, podem ser invocados interesses legítimos ao invés de consentimento. Pode ler mais informação sobre este assunto na nossa Política de Privacidade e Cookies.